Погода Ливны

Погода Ливны : погода сейчас, прогноз погоды и архив. Всё, что Вы хотите узнать о погоде Ливны!

Хотите узнать прогноз погоды Ливны? Тогда Вам сюда: Погода Ливны

Поиск расширенной информации на нашем сайте:

Другие новости

Новости СМИ2

Главная страница сайта

Новости сайта

02.10.2013

Напоминаем, что на нашем новом сайте вы можете получить высокодетализированные прогнозы погоды по пунктам России, СНГ и мира (включающие важные для авиации метеовеличины, такие как направление и скорость ветра, видимость, явления погоды, количество и форма облачности, нижняя и верхняя граница облачности), а также ознакомиться с разнообразными материалами по авиационной метеорологии и подборкой полезных ссылок на эту тему.

Сайт Метеоцентр.Азия посвящён разработке технологий оптимизации авиаметеорологического обслуживания, включая проектирование и перспективное создание нескольких автоматизированных авиаметеорологических систем:
- система выпуска высокодетальных прогностических карт явлений погоды для нижнего воздушного пространства по России и ближнему зарубежью;
- система верификации прогнозов TAF (выпускаемых синоптиками официальных АМСГ РФ и ближнего зарубежья) и AUTOTAF (выпускаемых сайтом Метеоцентр.Азия) - выявление ошибок, онлайн-сопоставление с фактической погодой METAR, автоматическое внесение коррективов в прогнозы при резком отклонении фактической погоды от прогноза, подсчёт оправдываемости прогнозов по элементам и в целом;
- система обработки, анализа и отображения авиаметеорологической информации для применения провайдерами метеорологической информации.

Рекомендуем: биолан

Погода Ливны - сегодня

Время (UTC), дата Ветер
(°,м/с) 
Видим.   Явления Облачность Т
(°С)
Тd
(°С)
f(%) Тe
(°С)
Pmin
(гПа)
dP
(гПа)
Po
(мм)
O2
(г/м3)
Тmin Tmax R s Состояние
почвы
06 21.03.17 010 (С) 0500 м  туман  ?/?  
+2.4 +2.1 98 +3  1012.4  1.7  743  296  +2    0.7     
09 21.03.17 340 (С) 20000 м  {туман}  10/10 300 м 
[St]
+4.8 +4.1 95 +4  1013.7  1.5  744  294           
12 21.03.17 310 (СЗ) 20000 м  {туман}  10/10 300 м 
[Sc]
+6.6 +2.5 75 +8  1014.4  0.7  744  292           
15 21.03.17 360 (С) 20000 м    4/4 600 м 
[Sc]
+6.8 +2.4 73 +8  1015.3  0.9  745  292           
18 21.03.17 тихо ()   20000 м    3/3 600 м 
[Sc]
+3.6 +1.3 85 +4  1016.9  1.5  746  296    +7.2       
21 21.03.17 290 (З) 20000 м    3/3 600 м 
[Sc]
+0.3 -0.8 92 +1  1018.5  1.2  747  301           
00 22.03.17 тихо ()   10 км    ясно 
-1.2 -2.2 93 -1  1019  0.4  747  303           
03 22.03.17 тихо ()   10 км    3/3 600 м 
[Sc]
-3.3 -4.1 94 -3  1020.9  1.6  749  306  -3.3         
06 22.03.17 130 (ЮВ) 2000 м  дымка  4/0 средняя, верхняя 
[Ac trans|Cc]
+1.1 +0.3 94 +2  1020.7  0.1  749  300  -3.3         
09 22.03.17 220 (ЮЗ) 20000 м    8/6 600 м средняя, верхняя 
[Sc|Ac trans|Cc]
+9.2 +0.9 56 +9  1020  0.1  749  292           
12 22.03.17 200 (Ю) 20000 м    10/10 600 м 
[Sc]
+9.4 +0.8 55 +9  1019.8  -0.2  749  291           
15 22.03.17 180 (Ю) 20000 м    9/3 600 м средняя, верхняя 
[Sc|Ac trans|Cc]
+10.2 +1.9 56 +10  1019.2  -0.6  748  290           
18 22.03.17 160 (Ю) 20000 м    3/0 верхняя 
[Ci fib]
+6.2 +3.3 82 +7  1019.8  0.3  748  294    +10.5       
21 22.03.17 190 (Ю) 20000 м    6/3 600 м верхняя 
[Sc|Ci fib]
+6.1 +2.7 79 +6  1019.4  -0.4  748  294           
00 23.03.17 190 (Ю) 20000 м    9/9 600 м 
[Sc]
+5.8 +2.9 82 +7  1019.3  -0.1  748  295           
03 23.03.17 230 (ЮЗ) 20000 м    10/10 600 м 
[Sc]
+6.4 +3.6 82 +6  1018.6  -0.6  747  294  +3.6         
06 23.03.17 260 (З) 20000 м    9/9 600 м 
[Sc]
+6.9 +3.4 78 +7  1019.2  0.5  748  293  +3.6         
09 23.03.17 010 (С) 20000 м  {дождь}  9/9 600 м 
[Sc]
+5.8 +3.9 88 +3  1021.6  2.4  750  295           
12 23.03.17 020 (С) 6{11}  20000 м  {дождь}  6/4 600 м верхняя 
[Sc|Cs]
+8.6 +2.7 66 +7  1022.7  1.3  751  293           
15 23.03.17 020 (С) 3{10}  20000 м    3/0 верхняя 
[Cs]
+9 -0.6 51 +8  1023.8  1.1  751  293         
18 23.03.17 тихо ()   20000 м    ясно 
+3.5 -0.6 74 +4  1025.2  0.9  752  299    +9.8     
21 23.03.17 360 (С) 20000 м    ясно 
-0.5 -1.7 92 1025.7  0.2  752  304           
00 24.03.17 тихо ()   10 км    ясно 
-2.4 -3.3 94 -2  1026.3  0.4  753  306           
03 24.03.17 тихо ()   4000 м  дымка  8/0 верхняя 
[Cs]
-2.6 -3.3 95 -3  1025.9  -0.5  752  306  -2.6         
06 24.03.17 130 (ЮВ) 10 км    8/4 600 м верхняя 
[Sc|Cs]
+0.4 -0.6 93 +1  1024.4  -1.1  751  302  -2.6         
Время (UTC), дата Ветер
(°,м/с) 
Видим.   Явления Облачность Т
(°С)
Тd
(°С)
f(%) Тe
(°С)
Pmin
(гПа)
dP
(гПа)
Po
(мм)
O2
(г/м3)
Тmin Tmax R s Состояние
почвы

Для получения пояснительной информации подведите курсор к названию столбца.

ПОГОДА Ливны - архив

Всё, что Вы хотите узнать о погоде Ливны - удобно и подробно!

Выберите нужную дату (начиная с 1 января 2015* года) и нажмите кнопку "Найти".
Будут отображены архивные сводки погоды по пункту Ливны, начиная с указанной даты.


Отображать данные в формате CSV (для использования в таблицах Excel)


Внимание! Наш архив погоды предназначен исключительно для личного некоммерческого использования в познавательных целях. Если Вам необходимы официальные справки о состоянии погоды (для производственных, юридических, коммерческих и т.п. целей), обращайтесь в органы Росгидромета.

*Примечание: данная дата относится к архиву по метеостанциям СССР (Россия, СНГ, Балтия).
Архив по метеостанциям Зарубежной Европы и Азии (кроме Китая) хранится 10 дней, по другим регионам земного шара (Китай, Африка, Америка, Австралия, Океания) - 1 день.

Ливны - район местоположения метеостанции


Название, широта, долгота, высота метеостанции:
Ливны 52.4°ш. 37.6°д. 179 м над ур. моря [Российская Федерация]

Дополнительная информация

В oтличие oт бoльшинства пoгoдных сайтoв мы публикуем пoдрoбную метеoинфoрмацию в детальнoм прoфессиoнальнoм фoрмате.

Характеристики температуры и влажнoсти вoздуха измеряются на высoте 2 м в тени вдали oт зданий и деревьев.
Скoрoсть ветра измеряется на высoте 10 м (на урoвне рoста челoвека скoрoсть ветра ниже в 1.5-2 раза). Если метеoстанция нахoдится в гoрoде или в лесу, тo скoрoсть ветра занижена на 2-4 м/с пo сравнению с oткрытым местoм. Скoрoсть ветра над акватoриями крупных рек и oзёр, а также на вершинах хoлмoв на 2-5 м/с выше, чем в oбычных услoвиях.
Атмoсфернoе давление в разных тoчках местнoсти мoжет значительнo oтличаться oт давления на метеoстанции, в зависимoсти oт услoвий рельефа (при пoдъёме на 10 м давление пoнижается примернo на 1 мм рт.ст.).